Location: Ethel Rock
(53.4667°N, 4.5667°W)
Time: 05:24:12
(UTC+00:00)

Cosmos 1908 - Pass Details

Date: 24 October 2020
Orbit: 512 x 529 km, 82.5° (Epoch: 25 November)

Event Time Altitude Azimuth Distance (km) Brightness Sun altitude
Rises 05:40:34 0° 339° (NNW) 2,680 6.6 -12.8°
Reaches altitude 10° 05:43:01 10° 325° (NW) 1,787 5.6 -12.4°
Maximum altitude 05:46:09 23° 272° (W) 1,149 4.3 -12.0°
Drops below altitude 10° 05:49:17 10° 218° (SW) 1,777 5.6 -11.5°
Sets 05:51:43 0° 204° (SSW) 2,662 6.6 -11.1°
